FW7380 Weather Reports


time (UTC)temp
C
wind
direction
speed
KPH
gust
KPH
rain 1hr
cm
rain 24hr
cm
rain mn
cm
humidity
%
barometer
mb
20260507170050 15 38 4.8 12.9 0.00 0.36 0.08 44 1006.4
20260507164539 15 182 6.4 17.7 0.00 0.36 0.08 44 1006.7
20260507163037 14 203 6.4 14.5 0.00 0.36 0.08 45 1006.7
20260507161544 14 179 6.4 14.5 0.00 0.36 0.08 48 1006.9
20260507160038 13 182 8.0 22.5 0.00 0.36 0.08 46 1006.8
20260507154537 13 179 6.4 14.5 0.00 0.36 0.08 61 1006.9
20260507153039 13 165 4.8 9.7 0.00 0.36 0.08 64 1007.0
20260507151539 12 167 4.8 9.7 0.00 0.36 0.08 67 1007.2
20260507150038 12 192 3.2 17.7 0.00 0.36 0.08 66 1007.4
20260507144539 12 165 3.2 11.3 0.00 0.36 0.08 66 1007.5
20260507143036 12 168 3.2 8.0 0.00 0.36 0.08 65 1007.4
20260507141538 12 174 3.2 9.7 0.00 0.36 0.08 64 1007.4
20260507140042 12 162 4.8 11.3 0.00 0.36 0.08 66 1007.4
20260507134540 -17 0.0 0.0 0.00 0.36 0.08 1007.3
20260507133045 -17 0.0 0.0 0.00 0.36 0.08 1007.4
20260507131546 -17 0.0 0.0 0.00 0.36 0.08 1007.8
20260507130059 -17 0.0 0.0 0.00 0.36 0.08 1007.8
20260507124539 -17 0.0 0.0 0.00 0.36 0.08 1007.8
20260507123043 -17 0.0 0.0 0.00 0.36 0.08 1007.9
20260507121540 -17 0.0 0.0 0.00 0.36 0.08 1008.0
20260507120039 -17 0.0 0.0 0.00 0.36 0.08 1007.9
20260507114537 -17 0.0 0.0 0.00 0.36 0.08 1007.9
20260507113039 -17 0.0 0.0 0.00 0.36 0.08 1007.7
20260507111537 -17 0.0 0.0 0.00 0.36 0.08 1007.7
20260507110048 -17 0.0 0.0 0.00 0.36 0.08 1007.6
20260507104547 -17 0.0 0.0 0.00 0.36 0.08 1007.2
20260507103104 -17 0.0 0.0 0.00 0.36 0.08 1007.4
20260507101540 -17 0.0 0.0 0.00 0.36 0.08 1007.3
20260507100048 -17 0.0 0.0 0.00 0.36 0.08 1007.0
20260507094538 -17 0.0 0.0 0.00 0.36 0.08 1007.5
20260507093042 -17 0.0 0.0 0.00 0.36 0.08 1007.1
20260507091543 -17 0.0 0.0 0.00 0.36 0.08 1007.2
20260507090038 -17 0.0 0.0 0.03 0.36 0.08 1007.0
20260507084544 -17 0.0 0.0 0.08 0.36 0.08 1007.5
20260507083038 -17 1.6 9.7 0.08 0.36 0.08 1006.8
20260507081538 7 174 3.2 6.4 0.08 0.36 0.08 93 1006.9
20260507080046 8 169 1.6 8.0 0.05 0.33 0.05 91 1006.8
20260507074540 8 176 3.2 8.0 0.00 0.28 0.00 89 1007.2
20260507073042 8 186 1.6 6.4 0.00 0.28 0.00 90 1006.9
20260507071538 8 168 3.2 8.0 0.00 0.28 0.00 90 1006.6
20260507070058 8 188 3.2 8.0 0.00 0.28 0.00 91 1006.8
20260507064546 8 175 4.8 8.0 0.00 0.28 0.00 91 1006.3
20260507063037 8 165 3.2 11.3 0.00 0.28 0.00 90 1006.1
20260507061539 8 179 1.6 6.4 0.00 0.28 0.00 91 1006.4
20260507060040 9 187 1.6 8.0 0.00 0.28 0.00 91 1006.6
20260507054559 9 165 1.6 4.8 0.00 0.28 0.00 93 1006.7
20260507053038 9 0 1.6 8.0 0.00 0.28 0.00 91 1006.9
20260507051541 9 169 3.2 8.0 0.00 0.28 0.00 92 1006.8
20260507050048 10 156 4.8 8.0 0.00 0.28 0.00 93 1006.6
20260507044544 10 181 4.8 11.3 0.00 0.28 0.00 94 1006.7
20260507043039 10 172 1.6 8.0 0.00 0.28 0.00 95 1006.6
20260507041542 10 171 4.8 9.7 0.00 0.28 0.00 95 1006.9
20260507040042 10 167 3.2 11.3 0.00 0.28 0.00 96 1006.8
20260507034543 11 147 4.8 14.5 0.00 0.28 0.28 97 1006.5
20260507033041 11 181 3.2 16.1 0.03 0.28 0.28 97 1006.2
20260507031541 12 184 3.2 14.5 0.03 0.28 0.28 98 1005.8
20260507030039 13 188 4.8 8.0 0.03 0.28 0.28 99 1006.0
20260507024539 14 170 4.8 9.7 0.03 0.28 0.28 99 1005.6
20260507023037 14 148 3.2 9.7 0.00 0.25 0.25 99 1005.5
20260507021542 14 86 3.2 9.7 0.00 0.25 0.25 99 1005.1
20260507020050 14 196 1.6 11.3 0.00 0.25 0.25 99 1005.2
20260507014547 14 94 3.2 16.1 0.00 0.25 0.25 99 1005.2
20260507013045 14 25 3.2 17.7 0.00 0.25 0.25 99 1005.3
20260507011543 14 97 3.2 16.1 0.00 0.25 0.25 99 1005.3
20260507010043 14 65 3.2 14.5 0.00 0.25 0.25 99 1005.4
20260507004543 14 356 3.2 8.0 0.00 0.25 0.25 99 1005.2
20260507003039 14 333 3.2 14.5 0.03 0.25 0.25 99 1005.2
20260507001555 14 198 3.2 12.9 0.03 0.25 0.25 99 1005.2
20260507000050 14 179 4.8 12.9 0.08 0.25 0.25 99 1005.2
20260506234549 14 1 3.2 22.5 0.13 0.25 0.25 99 1005.0
20260506233041 14 98 6.4 19.3 0.10 0.23 0.23 99 1005.1
20260506231544 14 11 4.8 19.3 0.13 0.23 0.23 99 1005.0
20260506230042 14 134 6.4 20.9 0.10 0.18 0.18 99 1005.4
20260506224540 14 106 6.4 22.5 0.05 0.13 0.13 99 1005.4
20260506223038 14 91 6.4 25.7 0.05 0.13 0.13 99 1005.4
20260506221550 14 299 6.4 17.7 0.05 0.10 0.10 99 1005.5
20260506220043 14 349 6.4 17.7 0.03 0.08 0.08 99 1005.7
20260506214537 14 101 4.8 16.1 0.08 0.08 0.08 99 1005.8
20260506213046 14 84 4.8 20.9 0.08 0.08 0.08 98 1005.8
20260506211545 14 115 6.4 22.5 0.05 0.05 0.05 98 1006.0
20260506210045 15 173 8.0 19.3 0.05 0.05 0.05 98 1006.1
20260506204538 15 59 6.4 19.3 0.00 0.00 0.00 98 1006.2
20260506203038 15 19 4.8 20.9 0.00 0.00 0.00 98 1006.1
20260506201540 15 1 3.2 14.5 0.00 0.00 0.00 98 1006.3
20260506200045 15 146 3.2 11.3 0.00 0.00 0.00 98 1006.4
20260506194543 16 129 3.2 14.5 0.00 0.00 0.00 98 1006.2
20260506193048 16 0 0.0 6.4 0.00 0.00 0.00 98 1006.3
20260506191539 16 148 1.6 6.4 0.00 0.00 0.00 98 1006.3
20260506190037 16 153 0.0 4.8 0.00 0.00 0.00 97 1006.6
20260506184539 16 180 1.6 6.4 0.00 0.00 0.00 96 1006.7
20260506183038 16 170 1.6 9.7 0.00 0.00 0.00 94 1006.9
20260506181553 17 169 1.6 3.2 0.00 0.00 0.00 88 1006.9
20260506180039 18 180 0.0 4.8 0.00 0.00 0.00 80 1007.0
20260506174538 21 46 8.0 35.4 0.00 0.00 0.00 66 1006.9
20260506173103 21 133 6.4 24.1 0.00 0.00 0.00 63 1006.6
20260506171542 21 137 6.4 22.5 0.00 0.00 0.00 63 1006.7